Weather History for Cincinnati, OH

Change the Weather History Date:

Monday, February 4, 2013

  Actual Average Record
Temperature  
Mean Temperature 26 °F -  
Max Temperature 34 °F 40 °F 71 °F (1962)
Min Temperature 18 °F 22 °F -3 °F (1985)
Degree Days  
Heating Degree Days 39    
Moisture  
Dew Point 27 °F    
Average Humidity 92    
Maximum Humidity 100    
Minimum Humidity 69    
Precipitation  
Precipitation 0.06 in - - ()
Sea Level Pressure  
Sea Level Pressure 29.94 in    
Wind  
Wind Speed 3 mph (SSW)    
Max Wind Speed 12 mph    
Max Gust Speed 21 mph    
Visibility 5 miles    
Events Fog , Rain , Snow    
Averages and records for this station are not official NWS values.
T = Trace of Precipitation, MM = Missing Value Source: NWS Daily Summary

Daily Weather History Graph

Daily Weather History Graph

Search for Another Location

Airport:

Trip Planner

Search our weather history database for the weather conditions in past years. The results will help you decide how hot, cold, wet, or windy it might be!

Date:

Astronomy

Feb. 04, 2013 Rise Set
Actual Time 7:41 AM EST 6:02 PM EST
Civil Twilight 7:13 AM EST 6:30 PM EST
Nautical Twilight 6:41 AM EST 7:02 PM EST
Astronomical Twilight 6:10 AM EST 7:33 PM EST
Moon 2:15 AM EST (2/4) 12:26 PM EST (2/4)
Length of Visible Light 11h 17m
Length of Day
10h 21m
Last Quarter, 37% of the Moon is Illuminated
Feb 4
Last Quarter
Feb 10
New
Feb 17
First Quarter
Feb 25
Full
Mar 4
Last Quarter

Hourly Weather History & Observations

Time (EST) Temp. Windchill Dew Point Humidity Pressure Visibility Wind Dir Wind Speed Gust Speed Precip Events Conditions
12:53 AM 18.0 °F - 17.1 °F 96% 30.17 in 8.0 mi Calm Calm - N/A   Partly Cloudy
1:53 AM 19.9 °F - 17.1 °F 89% 30.17 in 8.0 mi Calm Calm - N/A   Clear
2:53 AM 18.0 °F - 16.0 °F 92% 30.16 in 6.0 mi Calm Calm - N/A   Overcast
3:53 AM 19.0 °F 13.9 °F 18.0 °F 96% 30.15 in 6.0 mi SW 3.5 mph - N/A   Overcast
5:53 AM 18.0 °F 11.1 °F 17.1 °F 96% 30.14 in 5.0 mi SSW 4.6 mph - N/A   Mostly Cloudy
6:53 AM 19.9 °F 14.9 °F 18.0 °F 92% 30.11 in 8.0 mi SSW 3.5 mph - N/A   Overcast
7:53 AM 21.0 °F 13.4 °F 18.0 °F 88% 30.07 in 10.0 mi SSW 5.8 mph - N/A   Overcast
8:53 AM 21.9 °F 13.4 °F 17.1 °F 82% 30.05 in 10.0 mi SSW 6.9 mph - N/A   Overcast
9:53 AM 25.0 °F 14.8 °F 18.0 °F 75% 30.01 in 10.0 mi South 10.4 mph - N/A   Overcast
10:53 AM 27.0 °F 16.7 °F 19.0 °F 72% 29.99 in 10.0 mi South 11.5 mph 20.7 mph N/A   Overcast
11:53 AM 28.9 °F 22.8 °F 21.0 °F 72% 29.97 in 10.0 mi SSW 5.8 mph - N/A   Overcast
12:53 PM 30.9 °F 26.2 °F 21.9 °F 69% 29.94 in 10.0 mi SSW 4.6 mph - N/A   Overcast
1:53 PM 33.1 °F 28.7 °F 24.1 °F 70% 29.90 in 10.0 mi SSW 4.6 mph - N/A   Overcast
2:43 PM 32.0 °F - 26.6 °F 80% 29.89 in 1.0 mi Calm Calm - 0.00 in Snow Light Snow
2:53 PM 32.0 °F 28.7 °F 27.0 °F 82% 29.91 in 0.8 mi North 3.5 mph - 0.00 in Snow Light Snow
3:06 PM 30.2 °F - 28.4 °F 93% 29.89 in 1.2 mi Calm Calm - 0.01 in Snow Light Snow
3:09 PM 32.0 °F - 28.4 °F 87% 29.89 in 3.0 mi Calm Calm - 0.01 in Snow Light Snow
3:27 PM 32.0 °F - 28.4 °F 87% 29.88 in 1.8 mi Calm Calm - 0.01 in Snow Light Snow
3:39 PM 32.0 °F - 30.2 °F 93% 29.88 in 1.8 mi Calm Calm - 0.01 in Snow Light Snow
3:53 PM 32.0 °F - 30.0 °F 92% 29.91 in 0.8 mi Calm Calm - 0.01 in Snow Light Snow
4:07 PM 30.2 °F 26.7 °F 30.2 °F 100% 29.88 in 0.2 mi South 3.5 mph - 0.02 in Fog , Snow Heavy Snow
4:18 PM 32.0 °F 26.4 °F 32.0 °F 100% 29.87 in 0.2 mi South 5.8 mph - 0.03 in Fog , Snow Heavy Snow
4:28 PM 32.0 °F 25.6 °F 32.0 °F 100% 29.87 in 0.5 mi SSW 6.9 mph - 0.04 in Fog , Snow Snow
4:43 PM 32.0 °F 24.8 °F 32.0 °F 100% 29.86 in 0.5 mi SSW 8.1 mph - 0.05 in Fog , Snow Snow
4:53 PM 32.0 °F 25.6 °F 32.0 °F 100% 29.87 in 1.2 mi SSW 6.9 mph - 0.05 in Snow Light Snow
5:08 PM 33.8 °F 28.6 °F 32.0 °F 93% 29.85 in 3.0 mi SSW 5.8 mph - 0.00 in Snow Light Snow
5:18 PM 33.8 °F 28.6 °F 32.0 °F 93% 29.86 in 6.0 mi SW 5.8 mph - 0.00 in Rain Light Rain
5:43 PM 33.8 °F 29.6 °F 33.8 °F 100% 29.86 in 8.0 mi SSW 4.6 mph - 0.00 in   Overcast
5:53 PM 34.0 °F 29.8 °F 33.1 °F 96% 29.88 in 10.0 mi SSW 4.6 mph - 0.00 in   Overcast
6:53 PM 34.0 °F - 33.1 °F 96% 29.89 in 9.0 mi Calm Calm - N/A   Overcast
7:34 PM 33.8 °F - 33.8 °F 100% 29.88 in 6.0 mi Calm Calm - N/A   Overcast
7:53 PM 33.1 °F - 33.1 °F 100% 29.89 in 4.0 mi Calm Calm - N/A   Overcast
8:53 PM 33.1 °F - 32.0 °F 96% 29.90 in 4.0 mi Calm Calm - N/A   Overcast
9:53 PM 32.0 °F - 32.0 °F 100% 29.91 in 3.0 mi Calm Calm - N/A   Overcast
10:53 PM 32.0 °F - 32.0 °F 100% 29.91 in 3.0 mi Calm Calm - N/A   Mostly Cloudy
11:02 PM 32.0 °F - 32.0 °F 100% 29.90 in 2.5 mi Calm Calm - N/A   Overcast
11:08 PM 30.2 °F 25.4 °F 30.2 °F 100% 29.90 in 1.0 mi NE 4.6 mph - N/A   Overcast
11:16 PM 30.2 °F 25.4 °F 30.2 °F 100% 29.90 in 0.8 mi ENE 4.6 mph - N/A   Overcast
11:23 PM 30.2 °F 26.7 °F 30.2 °F 100% 29.89 in 1.5 mi NE 3.5 mph - N/A   Overcast
11:41 PM 30.2 °F - 30.2 °F 100% 29.89 in 1.2 mi Calm Calm - N/A   Overcast
11:53 PM 30.9 °F - 30.9 °F 100% 29.91 in 1.2 mi Calm Calm - N/A   Overcast